Location: Bear Valley
(38.4650°N, 120.0390°W)
Time: 00:56:23
(UTC-08:00)

ISS - Visible Passes

Search period start: 18 February 2018 00:00
Search period end: 28 February 2018 00:00
Orbit: 403 x 407 km, 51.6° (Epoch: 19 February)

Date Brightness Start Highest point End Pass type
(mag) Time Alt. Az. Time Alt. Az. Time Alt. Az.
23 Feb -0.7 06:04:44 10° SSE 06:06:33 14° SE 06:08:23 10° E visible
25 Feb -2.2 05:55:14 10° SSW 05:58:14 36° SE 06:01:16 10° ENE visible
26 Feb -1.2 05:03:49 10° S 05:06:07 18° SE 05:08:25 10° E visible
27 Feb -3.9 05:46:47 10° SW 05:50:02 82° NW 05:53:18 10° NE visible
